星链-3748 (STARLINK-3748 )

导读

STARLINK-3748是美国SpaceX公司星链星座的组网卫星,于2022年4月21日发射升空,属于星链星座大规模低轨卫星互联网部署计划的组成部分。星链项目旨在通过近地轨道卫星群,为全球提供高速低延迟互联网服务,填补偏远地区网络覆盖空白,同时也可支持军事与应急通信场景,该卫星目前在轨参与星座组网运行。

基本信息
目录编号:
52267
目录名称:
STARLINK-3748
国际标识:
2022-041G
轨道中心:
EARTH
卫星名称:
星链-3748
卫星全名:
星链-3748 (STARLINK-3748 )
卫星状态:
在轨 (已飞行1518 天)
发射日期:
2022-04-21 UTC
国别 :
美国 (US)
星等 :
--
轨道信息
数据来源 国际轨道数据
星历时间: 2026-06-17T04:36:23+0800
18小时前
查看轨道信息
半长轴: 6917.901km
偏心率: 0.0001258
轨道倾角: 53.159°
近地点辐角 95.691°
升交点赤经 23.846°
平近点角 264.422°
近地点: 538.893km
远地点: 540.635km
周期: 95.438分钟
每日圈数: 15.088333
详细信息
固有亮度:
5
最大亮度:
2.5
卫星平台:
Starlink v1.5
覆盖范围:
全球
运营商:
太空探索技术公司
运营商所在国:
美国
制造商(研发单位):
太空探索技术公司
制造商所在国:
美国
使用方式:
暂无
卫星简介
星链(Starlink)计划是由太空探索技术公司(SpaceX)提出的一个巨型低轨卫星互联网星座项目,计划在2019年至2024年间在太空搭建由约1.2万颗卫星组成的“星链”网络,其中1584颗将部署在地球上空550千米处的近地轨道,并从2020年开始工作。该卫星仍在工作。
2D轨道图
3D轨道图
轨道高度分析图
轨道倾角分析图
轨道综合分析图
查看轨道综合分析图